When you browse on this site, cookies collect data to enhance your experience and personalize the content and advertising you see.
Visit our Privacy Policy to learn more. By continuing to use the site, you agree to this use of cookies and data.
  • In Spain
  • List of Countries
  • For 7 days
  • Water Temperature
  • Satellite Maps
  • Weather Map
  • Weather Widgets
  • user-avatar
    Login

    Hourly Weather Sydney

    Today, 17 July, Wednesday

    Time Temperature Precipitation Wind Pressure Humidity
    00:00 +10°C° 0 mm 5 mps 763 mmHg 70%
    01:00 +9°C° 0 mm 5 mps 763 mmHg 71%
    02:00 +9°C° 0 mm 6 mps 763 mmHg 72%
    03:00 +9°C° 0 mm 6 mps 763 mmHg 72%
    04:00 +9°C° 0 mm 5 mps 763 mmHg 72%
    05:00 +8°C° 0 mm 5 mps 763 mmHg 73%
    06:00 +8°C° 0 mm 5 mps 763 mmHg 73%
    07:00 +8°C° 0 mm 5 mps 763 mmHg 74%
    08:00 +10°C° 0 mm 5 mps 763 mmHg 67%
    09:00 +12°C° 0 mm 5 mps 763 mmHg 60%
    10:00 +14°C° 0 mm 3 mps 763 mmHg 52%
    11:00 +17°C° 0 mm 3 mps 762 mmHg 47%
    12:00 +18°C° 0 mm 3 mps 761 mmHg 42%
    13:00 +19°C° 0 mm 3 mps 760 mmHg 37%
    14:00 +19°C° 0 mm 3 mps 760 mmHg 37%
    15:00 +19°C° 0 mm 3 mps 759 mmHg 37%
    16:00 +19°C° 0 mm 3 mps 759 mmHg 38%
    17:00 +17°C° 0 mm 4 mps 759 mmHg 43%
    18:00 +14°C° 0 mm 5 mps 759 mmHg 48%
    19:00 +11°C° 0 mm 6 mps 759 mmHg 53%
    20:00 +12°C° 0 mm 5 mps 760 mmHg 55%
    21:00 +10°C° 0 mm 5 mps 760 mmHg 57%
    22:00 +10°C° 0 mm 4 mps 760 mmHg 59%
    23:00 +10°C° 0 mm 4 mps 760 mmHg 61%

    Tomorrow, 18 July, Thursday

    Time Temperature Precipitation Wind Pressure Humidity
    00:00 +8°C° 0 mm 4 mps 760 mmHg 62%
    01:00 +8°C° 0 mm 4 mps 760 mmHg 64%
    02:00 +7°C° 0 mm 4 mps 760 mmHg 65%
    03:00 +7°C° 0 mm 4 mps 759 mmHg 67%
    04:00 +7°C° 0 mm 4 mps 759 mmHg 68%
    05:00 +7°C° 0 mm 4 mps 759 mmHg 69%
    06:00 +7°C° 0 mm 4 mps 760 mmHg 70%
    07:00 +7°C° 0 mm 5 mps 760 mmHg 71%
    08:00 +9°C° 0 mm 5 mps 761 mmHg 63%
    09:00 +12°C° 0 mm 5 mps 761 mmHg 54%
    10:00 +14°C° 0 mm 5 mps 761 mmHg 46%
    11:00 +15°C° 0 mm 4 mps 761 mmHg 39%
    12:00 +18°C° 0 mm 4 mps 760 mmHg 33%
    13:00 +19°C° 0 mm 3 mps 760 mmHg 27%
    14:00 +19°C° 0 mm 3 mps 760 mmHg 28%
    15:00 +19°C° 0 mm 3 mps 760 mmHg 29%
    16:00 +19°C° 0 mm 2 mps 760 mmHg 30%
    17:00 +16°C° 0 mm 2 mps 761 mmHg 38%
    18:00 +14°C° 0 mm 2 mps 761 mmHg 45%
    19:00 +11°C° 0 mm 3 mps 762 mmHg 52%
    20:00 +11°C° 0 mm 3 mps 762 mmHg 54%
    21:00 +10°C° 0 mm 3 mps 762 mmHg 56%
    22:00 +8°C° 0 mm 4 mps 763 mmHg 58%
    23:00 +8°C° 0 mm 4 mps 762 mmHg 62%

    Day after tomorrow, 19 July, Friday

    Time Temperature Precipitation Wind Pressure Humidity
    00:00 +7°C° 0 mm 4 mps 762 mmHg 65%
    01:00 +6°C° 0 mm 4 mps 762 mmHg 68%
    02:00 +6°C° 0 mm 4 mps 762 mmHg 67%
    03:00 +6°C° 0 mm 5 mps 762 mmHg 65%
    04:00 +6°C° 0 mm 5 mps 762 mmHg 64%
    05:00 +6°C° 0 mm 5 mps 763 mmHg 64%
    06:00 +6°C° 0 mm 5 mps 763 mmHg 64%
    07:00 +6°C° 0 mm 5 mps 763 mmHg 65%
    08:00 +8°C° 0 mm 4 mps 764 mmHg 59%
    09:00 +12°C° 0 mm 4 mps 764 mmHg 53%
    10:00 +14°C° 0 mm 4 mps 764 mmHg 48%
    11:00 +17°C° 0 mm 4 mps 764 mmHg 44%
    12:00 +18°C° 0 mm 3 mps 763 mmHg 40%
    13:00 +19°C° 0 mm 3 mps 763 mmHg 36%
    14:00 +19°C° 0 mm 3 mps 763 mmHg 37%
    15:00 +19°C° 0 mm 2 mps 763 mmHg 38%
    16:00 +19°C° 0 mm 2 mps 763 mmHg 39%
    17:00 +17°C° 0 mm 2 mps 764 mmHg 47%
    18:00 +15°C° 0 mm 2 mps 765 mmHg 54%
    19:00 +13°C° 0 mm 1 mps 765 mmHg 62%
    20:00 +12°C° 0 mm 1 mps 766 mmHg 64%
    21:00 +12°C° 0 mm 1 mps 766 mmHg 66%
    22:00 +11°C° 0 mm 1 mps 766 mmHg 68%
    23:00 +10°C° 0 mm 2 mps 766 mmHg 70%

    20 July, Saturday

    Time Temperature Precipitation Wind Pressure Humidity
    00:00 +9°C° 0 mm 2 mps 766 mmHg 73%
    01:00 +8°C° 0 mm 2 mps 766 mmHg 75%
    02:00 +8°C° 0 mm 2 mps 766 mmHg 77%
    03:00 +8°C° 0 mm 2 mps 766 mmHg 78%
    04:00 +7°C° 0 mm 2 mps 766 mmHg 80%
    05:00 +7°C° 0 mm 2 mps 766 mmHg 81%
    06:00 +7°C° 0 mm 2 mps 766 mmHg 82%
    07:00 +6°C° 0 mm 2 mps 766 mmHg 82%
    08:00 +8°C° 0 mm 2 mps 766 mmHg 74%
    09:00 +10°C° 0 mm 2 mps 766 mmHg 65%
    10:00 +13°C° 0 mm 2 mps 766 mmHg 56%
    11:00 +14°C° 0 mm 3 mps 765 mmHg 51%
    12:00 +17°C° 0 mm 3 mps 764 mmHg 45%
    13:00 +19°C° 0 mm 3 mps 763 mmHg 39%
    14:00 +19°C° 0 mm 4 mps 763 mmHg 39%
    15:00 +19°C° 0 mm 5 mps 763 mmHg 40%
    16:00 +19°C° 0 mm 5 mps 762 mmHg 40%
    17:00 +17°C° 0 mm 5 mps 763 mmHg 46%
    18:00 +15°C° 0 mm 5 mps 763 mmHg 52%
    19:00 +13°C° 0 mm 5 mps 764 mmHg 58%
    20:00 +12°C° 0 mm 5 mps 764 mmHg 60%
    21:00 +10°C° 0 mm 5 mps 764 mmHg 61%
    22:00 +9°C° 0 mm 5 mps 764 mmHg 62%
    23:00 +10°C° 0 mm 4 mps 763 mmHg 64%

    21 July, Sunday

    Time Temperature Precipitation Wind Pressure Humidity
    00:00 +8°C° 0 mm 4 mps 763 mmHg 65%
    01:00 +8°C° 0 mm 4 mps 763 mmHg 67%
    02:00 +7°C° 0 mm 4 mps 763 mmHg 69%
    03:00 +8°C° 0 mm 3 mps 762 mmHg 71%
    04:00 +7°C° 0 mm 3 mps 762 mmHg 73%
    05:00 +7°C° 0 mm 3 mps 763 mmHg 73%
    06:00 +7°C° 0 mm 3 mps 763 mmHg 74%
    07:00 +7°C° 0 mm 3 mps 763 mmHg 75%
    08:00 +9°C° 0 mm 3 mps 763 mmHg 66%
    09:00 +12°C° 0 mm 3 mps 763 mmHg 57%
    10:00 +14°C° 0 mm 3 mps 763 mmHg 48%
    11:00 +17°C° 0 mm 2 mps 762 mmHg 42%
    12:00 +19°C° 0 mm 2 mps 761 mmHg 37%
    13:00 +22°C° 0 mm 1 mps 761 mmHg 31%
    14:00 +21°C° 0 mm 2 mps 761 mmHg 32%
    15:00 +21°C° 0 mm 2 mps 761 mmHg 32%
    16:00 +21°C° 0 mm 3 mps 760 mmHg 33%
    17:00 +19°C° 0 mm 3 mps 761 mmHg 39%
    18:00 +17°C° 0 mm 2 mps 762 mmHg 45%
    19:00 +15°C° 0 mm 2 mps 762 mmHg 51%
    20:00 +15°C° 0 mm 2 mps 762 mmHg 54%
    21:00 +14°C° 0 mm 2 mps 763 mmHg 57%
    22:00 +12°C° 0 mm 3 mps 763 mmHg 60%
    23:00 +12°C° 0 mm 3 mps 763 mmHg 64%

    22 July, Monday

    Time Temperature Precipitation Wind Pressure Humidity
    00:00 +11°C° 0 mm 3 mps 763 mmHg 67%
    01:00 +10°C° 0 mm 3 mps 763 mmHg 71%
    02:00 +10°C° 0 mm 3 mps 763 mmHg 74%
    03:00 +10°C° 0 mm 3 mps 763 mmHg 76%
    04:00 +8°C° 0 mm 4 mps 763 mmHg 79%
    05:00 +8°C° 0 mm 4 mps 763 mmHg 80%
    06:00 +9°C° 0 mm 3 mps 763 mmHg 80%
    07:00 +9°C° 0 mm 3 mps 763 mmHg 81%
    08:00 +11°C° 0 mm 3 mps 763 mmHg 71%
    09:00 +13°C° 0 mm 3 mps 763 mmHg 61%
    10:00 +17°C° 0 mm 3 mps 763 mmHg 51%
    11:00 +19°C° 0 mm 2 mps 762 mmHg 45%
    12:00 +22°C° 0 mm 1 mps 762 mmHg 40%
    13:00 +24°C° 0 mm 1 mps 761 mmHg 34%
    14:00 +23°C° 0 mm 2 mps 761 mmHg 36%
    15:00 +22°C° 0 mm 3 mps 761 mmHg 38%
    16:00 +21°C° 0 mm 4 mps 761 mmHg 40%
    17:00 +20°C° 0 mm 4 mps 761 mmHg 46%
    18:00 +18°C° 0 mm 4 mps 762 mmHg 52%
    19:00 +17°C° 0 mm 3 mps 762 mmHg 58%
    20:00 +16°C° 0 mm 3 mps 763 mmHg 60%
    21:00 +14°C° 0 mm 3 mps 763 mmHg 61%
    22:00 +13°C° 0 mm 3 mps 763 mmHg 62%
    23:00 +13°C° 0 mm 3 mps 763 mmHg 64%
    Show more